Volver al catálogo

STARLINK-4123

ActivoComunicacionesVLEO
NORAD 53539·PAYLOAD·🇺🇸 United States

Lanzado Aug 19, 2022 desde Cape Canaveral Space Force Station

Loading…

Próximos Pases (próximas 24 horas)

TLE

ActualizadoSource: CelesTrak SupGP

Época: Sep 15, 2026, 02:55 UTC

1 53539C 22101N   26258.12201389 -.00664440  00000+0 -19159-1 0  2589
2 53539  53.1596 294.5176 0001401  87.8318  89.2112 15.35487396    16

Sigue STARLINK-4123 en tiempo real con AllMySat

Download on the App Store